Location: Kawakawa
(35.3830°S, 174.0670°E)
Time: 09:19:15
(UTC+13:00)

Altair - Pass Details

Date: 15 December 2019
Orbit: 1502 x 1682 km, 47.2° (Epoch: 25 January)

Event Time Altitude Azimuth Distance (km) Brightness Sun altitude
Rises 09:06:45 0° 303° (WNW) 4,712 9.6 34.7°
Reaches altitude 10° 09:09:45 10° 302° (WNW) 3,755 9.2 35.3°
Maximum altitude 09:19:22 81° 213° (SSW) 1,635 8.3 37.3°
Drops below altitude 10° 09:29:27 10° 125° (SE) 3,917 10.5 39.3°
Sets 09:32:40 0° 123° (ESE) 4,924 10.8 40.0°
